Notices

What's New in latest Release from April 7th, 2021:

- Updated Glossary, including Speed of Maximum Gust, and Total Hourly Precipitation

- Updated national and regional climate services offices contacts and prices information

- Addition of station inventory lists for 1981-2010, 1971-2000, and 1961-1990 Normals.

If you haven't already, please take our survey and provide feedback about our website: https://eccc.sondage-survey.ca/f/LanguageSelection.aspx?s=442ca660-fcf1-47c0-95a9-59707d6fd709

Hourly Data Report for March 21, 2010

HALIFAX STANFIELD INT'L A
NOVA SCOTIA

44°52'48.060" N
63°30'00.050" W
145.40 m
8202250
71395
YHZ

Download Data

Hourly Data (March 2010)
Hourly Data Report for March 21, 2010
TIME
LST
Temp Definition
°C
Dew Point Definition
°C
Rel Hum Definition
%
Precip. Amount Definition
mm

Wind Dir Definition
10's deg

Wind Spd Definition
km/h
Visibility Definition
km
Stn Press Definition
kPa
Hmdx Definition


Wind Chill Definition


Weather Definition


00:00 8.6 1.8 62   31 22 24.1 99.71     Mostly Cloudy
01:00 8.6 1.8 62   33 26 24.1 99.79     Cloudy
02:00 8.5 1.6 62   33 28 24.1 99.84     Cloudy
03:00 6.9 1.1 67   32 28 24.1 99.91     Mostly Cloudy
04:00 3.8 -0.9 71   36 19 24.1 100.05     Mostly Cloudy
05:00 2.3 -2.1 73   1 9 24.1 100.14     Mainly Clear
06:00 0.9 -3.1 75   36 13 24.1 100.26     Mainly Clear
07:00 1.6 -3.3 70   4 6 24.1 100.39     Mainly Clear
08:00 2.5 -3.8 63   2 19 24.1 100.43     Mainly Clear
09:00 3.6 -4.0 58   35 13 24.1 100.49     Mainly Clear
10:00 4.1 -4.7 53   3 13 24.1 100.52     Mainly Clear
11:00 5.4 -6.2 43   36 15 24.1 100.56     Mainly Clear
12:00 7.3 -7.3 35   34 9 24.1 100.57     Mainly Clear
13:00 7.6 -7.6 33   36 6 24.1 100.59     Mainly Clear
14:00 8.6 -8.7 28   32 19 24.1 100.57     Mostly Cloudy
15:00 8.3 -10.6 25   27 9 24.1 100.60     Mostly Cloudy
16:00 7.5 -2.4 49   15 15 24.1 100.60     Cloudy
17:00 6.2 -2.2 55   20 13 24.1 100.58     Cloudy
18:00 4.7 -2.3 60   16 15 24.1 100.58     Mostly Cloudy
19:00 3.6 -1.7 68   15 15 24.1 100.59     Cloudy
20:00 2.5 -2.1 72   17 13 24.1 100.63     Cloudy
21:00 1.9 -2.0 75   17 17 24.1 100.62     Cloudy
22:00 1.6 -1.1 82   14 19 24.1 100.54     Cloudy
23:00 1.6 -0.3 87   16 11 24.1 100.53     Cloudy

Notes on Data Quality.

Legend

  • E = Estimated
  • M = Missing
  • NA = Not Available*
  • [empty] = Indicates an unobserved value
Date modified: